SCOUT A DEB, 3591

Orbit data source: Space-Track

SCOUT A DEB, 3591 is space debris in LEO originally from a launch on Thu, 19 May 1966 UTC launched from the Air Force Western Test Range (AFWTR). Debris objects in space refer to the collection of defunct objects orbiting the Earth. Examples of debris include non-operational satellites, rocket bodies, and fragments generated from explosions, collisions, or faulty payload assembly.

Loading next visibility...
Identifier
3591, 1966-041E
Orbit
LEO
Country
Flag of USUS
Related business
Manufacturer
Unknown
Mission
Spacecraft
Bus & Motor
Unknown
Mass
Unknown
Launch date (UTC)
1966-05-19 (59 years ago)
Launch vehicle
Unknown
Launch site
Air Force Western Test Range (AFWTR)
Object type
Payload
Rocket body
Debris
Shape & HBR
Unknown shape, 0.2 m
Radar Cross Section
Small (<0.1 m²)

Expand to show TLE details & history
Last TLE update: 17 hours ago

TLE from 17 hours ago
0 SCOUT A DEB
1 03591U 66041E   25308.80593525  .00000341  00000-0  20198-3 0  9991
2 03591  90.2179  77.1383 0089698 122.8275 238.1584 14.03950624 35906
Epoch: 2025-11-04T19:20Z
TLE epoch observation values (Epoch: 2025-11-04T19:20:32.805Z)
Latitude
0.00001°
Longitude
102.71393°
Altitude
917.953 km
Speed
7.375 km/s
True Right ascension
05h 08m 33s
True Declination
0° 00' 00"
Sunlit
Object was in full shadow at epoch
Visualization orbit readout
Latitude
Unknown
Longitude
Unknown
Altitude
Unknown
Speed
Unknown
Apparent Right ascension
Unknown
Apparent Declination
Unknown
Sunlit
N/A
Visualization observer readout
Local Sidereal Time
08:34:42
Azimuth
Unknown
Elevation
Unknown
Doppler factor
Unknown
Orbital elements
Apogee altitude
942.196 km
Perigee altitude
812.04 km
Semi-major axis
7,255.255 km
Eccentricity
0.00897
Inclination
90.2179°
RAAN
77.1383°
Arg. of periapsis
122.8275°
True anomaly
237.29039°
Mean anomaly
238.1584°
Eccentric anomaly
237.72388°
Mean motion
3.51208 °/min
Orbital period
102.5 mins
BSTAR
0.00020198
Loading maneuver chart data...
Computing Atmospheric mass density...
Loading historical data...
Loading historical data...
Loading historical data...
Loading historical data...
Loading historical data...
Loading historical data...
Loading historical data...

Documentation

Showing up to 5 results
|